Regional Weather Roundup
Issued by NWS

Home | Current Version | Previous Version | Graphics & Text | Print | Product List | Glossary On
Versions: 1 2 3 4 5 6 7 8 9 10 11 12 13 14 15 16 17 18 19 20 21 22 23 24 25 26 27 28 29 30 31 32 33 34 35 36 37 38 39 40 41 42 43 44 45 46 47 48 49 50
000
ASUS43 KLOT 311400
RWRIL

ILLINOIS REGIONAL WEATHER ROUNDUP
NATIONAL WEATHER SERVICE CHICAGO/ROMEOVILLE IL
900 AM CDT MON AUG 31 2015

NOTE: "FAIR" INDICATES FEW OR NO CLOUDS BELOW 12,000 FEET WITH NO
SIGNIFICANT WEATHER AND/OR OBSTRUCTIONS TO VISIBILITY.

* THESE STATIONS ARE NOT UNDER NWS QUALITY CONTROL. THEY ALSO MAY NOT
  REPORT WEATHER SUCH AS PRECIPITATION OR FOG.

ILZ001-002-007-009-015-016-024-311500-
NORTHWEST ILLINOIS

CITY           SKY/WX    TMP DP  RH WIND       PRES   REMARKS
MOLINE         SUNNY     69  65  86 E5        30.04F FOG
$$

ILZ003-004-008-010-011-017-018-311500-
NORTH CENTRAL ILLINOIS

CITY           SKY/WX    TMP DP  RH WIND       PRES   REMARKS
ROCKFORD       NOT AVBL
$$

ILZ005-006-012>014-019>023-311500-
NORTHEAST ILLINOIS

CITY           SKY/WX    TMP DP  RH WIND       PRES   REMARKS
CHICAGO-OHARE  MOSUNNY   67  65  93 NW3       30.07S FOG
CHICAGO-MIDWAY SUNNY     72  66  81 CALM      30.07S HAZE
AURORA         CLOUDY    67  65  93 CALM      30.09R FOG
WAUKEGAN       SUNNY     64  64 100 SW5       30.07S FOG
DUPAGE AIRPORT SUNNY     68  64  87 CALM      30.08R FOG
WHEELING       SUNNY     65  63  93 CALM      30.09R FOG
NORTHERLY ISL    N/A     72  65  78 CALM        N/A
$$

LMZ740>746-311500-
SOUTHERN LAKE MICHIGAN

STATION/POSITION SKY/WX   TEMP    WIND        PRES    VSBY  WAVE
                          AIR SEA DIR/SP/G                  HT/PER
                          (F)     (DEG/KT/KT) (MB)    (MI)  (FT/S)
SOUTHERN BUOY              68 68  220/  4/  4 1018.2R         0
WILMETTE HARBOR            59 59   40/  2/  2   N/A           0
HARRISON CRIB              68     300/  4/  4   N/A
BURNHAM HARBOR             69     260/  2/  5   N/A
BURNS HARBOR               68     270/  2/  5 1019.0R
MICHIGAN CITY              67     180/  3/  3   N/A
MICHIGAN CITY 6N           70 71  270/  2/  4   N/A           0
ST. JOSEPH                 69 71  190/  2/  2   N/A           0
$$

ILZ025>027-034>036-040-047-049-050-058-095>099-311500-
WEST-CENTRAL ILLINOIS

CITY           SKY/WX    TMP DP  RH WIND       PRES   REMARKS
$$

ILZ028>032-037-038-041>044-048-051>054-059>061-311500-
CENTRAL ILLINOIS

CITY           SKY/WX    TMP DP  RH WIND       PRES   REMARKS
PEORIA         NOT AVBL
SPRINGFIELD    SUNNY     77  72  84 S9        30.07R
TAYLORVILLE    NOT AVBL
$$

ILZ033-039-045-046-055>057-062-063-311500-
EAST-CENTRAL ILLINOIS

CITY           SKY/WX    TMP DP  RH WIND       PRES   REMARKS
CHAMPAIGN      SUNNY     75  70  84 S6        30.10R
MATTOON        CLOUDY    71  67  87 S8        30.10R
$$

ILZ079-100>102-311500-
SOUTHWEST ILLINOIS

CITY           SKY/WX    TMP DP  RH WIND       PRES   REMARKS
CAHOKIA*       SUNNY     78  69  73 S8        30.07S HX  80
$$

ILZ064>066-069>071-074>076-080>082-084>086-088>090-092>094-311500-
SOUTH-CENTRAL ILLINOIS

CITY           SKY/WX    TMP DP  RH WIND       PRES   REMARKS
CARBONDALE     MOSUNNY   75  69  81 SW12      30.11R
MARION         MOSUNNY   75  70  83 SW6       30.12S
$$

ILZ067-068-072-073-078-083-087-091-311500-
SOUTHEAST ILLINOIS

CITY           SKY/WX    TMP DP  RH WIND       PRES   REMARKS
LAWRENCEVILLE  CLOUDY    74  69  85 S8        30.13R
$$

ABBREVIATIONS USED IN REMARKS
   TC - TEMPERATURE IN CELSIUS
  WCI - WIND CHILL INDEX
   HX - HEAT INDEX
  VSB - VISIBILITY
$$




USA.gov is the U.S. government's official web portal to all federal, state and local government web resources and services.